#�ϑ�����,���ϕ���,���ϕ���,�ő啗��,�ő啗����������,�ő�u�ԕ���,�ő�u�ԕ�����������
#(�N����),(m/s)   ,(16����),(m/s)   ,(16����)        ,(m/s)       ,(16����)            
2016/9/20 0:01,0.7,14,0.7,15,0.8,11
2016/9/20 0:02,0.7,13,0.7,15,1.3,9
2016/9/20 0:03,0.6,12,0.7,15,1.3,9
2016/9/20 0:04,0.6,12,0.6,15,0.8,10
2016/9/20 0:05,0.6,11,0.6,15,1.1,11
2016/9/20 0:06,0.7,11,0.7,15,1.1,11
2016/9/20 0:07,0.7,11,0.7,14,1.3,13
2016/9/20 0:08,0.8,11,0.8,11,1.8,12
2016/9/20 0:09,0.8,11,0.8,11,1.4,13
2016/9/20 0:10,0.8,11,0.8,11,1.5,14
2016/9/20 0:11,0.9,12,0.9,12,1.8,15
2016/9/20 0:12,1,12,1,12,1.6,12
2016/9/20 0:13,1,12,1,12,1.6,13
2016/9/20 0:14,1,12,1,12,1.6,12
2016/9/20 0:15,1.1,12,1.1,12,1.4,11
2016/9/20 0:16,1.1,12,1.1,12,1.4,11
2016/9/20 0:17,1.1,12,1.1,12,1.3,12
2016/9/20 0:18,1.1,12,1.1,12,1.3,12
2016/9/20 0:19,1,12,1.1,12,1,11
2016/9/20 0:20,1,12,1,12,1,11
2016/9/20 0:21,1,12,1,12,1.3,12
2016/9/20 0:22,1,12,1,12,1.5,12
2016/9/20 0:23,1,12,1,12,1.8,12
2016/9/20 0:24,1.1,12,1.1,12,2.6,11
2016/9/20 0:25,1.1,12,1.1,12,2.4,11
2016/9/20 0:26,1.2,12,1.2,12,2.4,10
2016/9/20 0:27,1.3,12,1.3,12,2.5,12
2016/9/20 0:28,1.3,12,1.3,12,1.8,11
2016/9/20 0:29,1.3,12,1.3,12,1.4,12
2016/9/20 0:30,1.4,12,1.4,12,1.8,14
2016/9/20 0:31,1.4,12,1.4,12,1.6,15
2016/9/20 0:32,1.4,12,1.4,12,1.6,1
2016/9/20 0:33,1.3,13,1.4,12,0.9,13
2016/9/20 0:34,1.1,13,1.3,12,0.5,2
2016/9/20 0:35,1,14,1.1,12,0.5,2
2016/9/20 0:36,0.8,15,1,12,0.5,2
2016/9/20 0:37,0.7,16,0.8,12,0.6,3
2016/9/20 0:38,0.5,16,0.6,12,0.3,3
2016/9/20 0:39,0.5,1,0.5,12,0.4,5
2016/9/20 0:40,0.4,2,0.4,12,0.6,6
2016/9/20 0:41,0.3,3,0.4,12,0.6,9
2016/9/20 0:42,0.3,4,0.3,12,0.9,7
2016/9/20 0:43,0.3,4,0.3,13,1.1,9
2016/9/20 0:44,0.3,6,0.3,13,0.6,8
2016/9/20 0:45,0.3,7,0.3,14,0.1,10
2016/9/20 0:46,0.2,8,0.3,15,0,10
2016/9/20 0:47,0.2,8,0.2,16,0,10
2016/9/20 0:48,0.2,8,0.2,16,0.4,8
2016/9/20 0:49,0.2,8,0.2,1,0.1,7
2016/9/20 0:50,0.2,8,0.2,2,0,3
2016/9/20 0:51,0.1,8,0.2,3,1.3,16
2016/9/20 0:52,0.2,8,0.2,4,1.4,16
2016/9/20 0:53,0.2,8,0.2,5,1.3,1
2016/9/20 0:54,0.2,4,0.2,6,0.8,15
2016/9/20 0:55,0.3,1,0.3,7,0.6,14
2016/9/20 0:56,0.3,1,0.3,2,0.9,10
2016/9/20 0:57,0.4,16,0.4,16,1.4,11
2016/9/20 0:58,0.5,16,0.5,16,1.4,13
2016/9/20 0:59,0.6,15,0.6,15,1.5,12
2016/9/20 1:00,0.8,14,0.8,14,1.6,11
2016/9/20 1:01,0.8,13,0.9,13,1.6,11
2016/9/20 1:02,0.7,13,0.8,13,0.6,10
2016/9/20 1:03,0.7,13,0.7,13,0.4,12
2016/9/20 1:04,0.7,13,0.7,13,0.5,1
2016/9/20 1:05,0.7,13,0.7,13,0.5,1
2016/9/20 1:06,0.7,13,0.7,13,0.1,1
2016/9/20 1:07,0.6,13,0.6,13,1.1,8
2016/9/20 1:08,0.5,13,0.6,13,0.8,9
2016/9/20 1:09,0.4,13,0.5,13,0.4,14
2016/9/20 1:10,0.3,15,0.4,13,0.4,2
2016/9/20 1:11,0.1,16,0.2,13,0.1,5
2016/9/20 1:12,0.1,1,0.1,13,0.1,9
2016/9/20 1:13,0.2,4,0.2,13,1.1,10
2016/9/20 1:14,0.4,9,0.4,13,3.6,9
2016/9/20 1:15,0.5,9,0.5,13,3,10
2016/9/20 1:16,0.8,9,0.8,9,3.8,10
2016/9/20 1:17,1.1,9,1.1,9,3.7,11
2016/9/20 1:18,1.3,10,1.3,9,3.9,10
2016/9/20 1:19,1.5,9,1.5,9,3.9,9
2016/9/20 1:20,1.7,9,1.7,9,3.9,10
2016/9/20 1:21,1.9,10,1.9,10,3.1,10
2016/9/20 1:22,2,10,2,10,3,9
2016/9/20 1:23,1.9,10,2,10,1.1,8
2016/9/20 1:24,1.9,10,1.9,10,2.4,10
2016/9/20 1:25,1.9,10,1.9,10,2.9,10
2016/9/20 1:26,1.8,10,1.9,10,3.3,9
2016/9/20 1:27,1.7,10,1.8,10,4.2,9
2016/9/20 1:28,1.5,10,1.7,10,3.2,10
2016/9/20 1:29,1.5,10,1.5,10,3,10
2016/9/20 1:30,1.4,10,1.5,10,2,11
2016/9/20 1:31,1.4,11,1.4,10,3.1,16
2016/9/20 1:32,1.5,11,1.5,10,3.9,15
2016/9/20 1:33,1.7,12,1.7,10,3.9,15
2016/9/20 1:34,1.8,12,1.8,10,3.1,15
2016/9/20 1:35,1.7,13,1.8,10,2.2,15
2016/9/20 1:36,1.6,13,1.7,10,0.8,13
2016/9/20 1:37,1.4,13,1.6,12,0.8,13
2016/9/20 1:38,1.3,14,1.4,12,0.3,16
2016/9/20 1:39,1.2,14,1.3,12,0.9,16
2016/9/20 1:40,1.2,15,1.2,12,1.8,15
2016/9/20 1:41,1.1,15,1.2,12,1.4,15
2016/9/20 1:42,1,14,1.1,12,2,11
2016/9/20 1:43,1,14,1,12,2.6,10
2016/9/20 1:44,0.9,13,1,12,3.2,9
2016/9/20 1:45,1,12,1,13,4.3,10
2016/9/20 1:46,1.1,12,1.1,13,3,10
2016/9/20 1:47,1.3,11,1.3,13,3.1,11
2016/9/20 1:48,1.5,11,1.5,11,2.9,10
2016/9/20 1:49,1.6,11,1.6,11,1.6,12
2016/9/20 1:50,1.5,11,1.6,11,1.5,12
2016/9/20 1:51,1.5,11,1.6,11,1.8,12
2016/9/20 1:52,1.5,11,1.5,11,1,13
2016/9/20 1:53,1.4,11,1.4,11,1,13
2016/9/20 1:54,1.3,11,1.4,11,1.6,9
2016/9/20 1:55,1.3,11,1.3,11,2.7,11
2016/9/20 1:56,1.3,11,1.3,11,3.1,11
2016/9/20 1:57,1.2,11,1.3,11,2.1,12
2016/9/20 1:58,1.2,11,1.2,11,3,10
2016/9/20 1:59,1.3,11,1.3,11,2.9,11
2016/9/20 2:00,1.3,11,1.3,11,2.6,14
2016/9/20 2:01,1.3,12,1.3,11,1.5,15
2016/9/20 2:02,1.3,12,1.3,11,1,14
2016/9/20 2:03,1.3,12,1.3,11,0.6,16
2016/9/20 2:04,1.2,12,1.3,11,0.6,8
2016/9/20 2:05,1.1,13,1.2,11,1.4,8
2016/9/20 2:06,1,13,1.1,11,1.6,8
2016/9/20 2:07,1,12,1,11,2,9
2016/9/20 2:08,1,12,1,11,3,9
2016/9/20 2:09,1.1,11,1.1,11,3.3,9
2016/9/20 2:10,1,11,1,11,2.7,10
2016/9/20 2:11,1.1,10,1.1,12,3.1,10
2016/9/20 2:12,1.4,10,1.4,10,3.5,11
2016/9/20 2:13,1.7,10,1.7,10,3.7,10
2016/9/20 2:14,2,10,2,10,3.7,11
2016/9/20 2:15,2.2,10,2.2,10,3.5,11
2016/9/20 2:16,2.2,10,2.2,10,2.5,11
2016/9/20 2:17,2.1,10,2.2,10,1.1,12
2016/9/20 2:18,2,10,2.1,10,1.5,7
2016/9/20 2:19,1.9,10,2,10,1.5,6
2016/9/20 2:20,1.7,10,1.9,10,0.9,7
2016/9/20 2:21,1.6,10,1.7,10,0.3,13
2016/9/20 2:22,1.3,10,1.5,10,0.6,12
2016/9/20 2:23,1,10,1.3,10,0.5,13
2016/9/20 2:24,0.7,10,1,10,0.8,10
2016/9/20 2:25,0.6,10,0.7,10,1.3,9
2016/9/20 2:26,0.6,10,0.6,10,2.1,10
2016/9/20 2:27,0.6,10,0.6,10,1.9,10
2016/9/20 2:28,0.6,10,0.6,10,1,9
2016/9/20 2:29,0.6,10,0.6,10,1.3,10
2016/9/20 2:30,0.6,11,0.6,10,2.4,3
2016/9/20 2:31,0.7,11,0.7,10,2.4,16
2016/9/20 2:32,0.8,11,0.8,10,1.6,16
2016/9/20 2:33,0.9,11,0.9,10,2.7,16
2016/9/20 2:34,1,12,1,12,1.6,15
2016/9/20 2:35,1.1,12,1.1,12,3.1,9
2016/9/20 2:36,1.1,13,1.1,12,2.5,14
2016/9/20 2:37,1.1,13,1.1,12,2.2,13
2016/9/20 2:38,1.1,13,1.1,12,1.9,12
2016/9/20 2:39,1,14,1.1,12,0.1,8
2016/9/20 2:40,1,12,1.1,12,1.5,9
2016/9/20 2:41,1,11,1,12,1.4,8
2016/9/20 2:42,1,10,1,12,1.6,8
2016/9/20 2:43,1.1,10,1.1,12,2.7,9
2016/9/20 2:44,1.1,9,1.1,12,3.3,9
2016/9/20 2:45,1.1,9,1.1,12,3,9
2016/9/20 2:46,1.1,9,1.1,13,3.2,9
2016/9/20 2:47,1,9,1.1,13,1.3,10
2016/9/20 2:48,1,9,1,13,1.4,9
2016/9/20 2:49,1.1,8,1.1,13,1.4,6
2016/9/20 2:50,1.2,8,1.2,8,2.5,8
2016/9/20 2:51,1.2,9,1.3,9,2,8
2016/9/20 2:52,1.2,8,1.2,9,1.1,8
2016/9/20 2:53,1,9,1.2,9,0.3,11
2016/9/20 2:54,0.8,9,1,9,0.3,2
2016/9/20 2:55,0.7,9,0.8,9,1,16
2016/9/20 2:56,0.7,9,0.7,9,1.9,15
2016/9/20 2:57,0.7,9,0.7,9,1.5,15
2016/9/20 2:58,0.8,11,0.8,9,2.2,12
2016/9/20 2:59,0.8,12,0.9,9,1.8,12
2016/9/20 3:00,0.8,12,0.8,9,1.3,11
2016/9/20 3:01,0.8,12,0.8,9,3.3,9
2016/9/20 3:02,1.1,12,1.1,9,3.8,8
2016/9/20 3:03,1.2,12,1.2,12,3.2,8
2016/9/20 3:04,1.4,12,1.4,12,2.9,10
2016/9/20 3:05,1.5,11,1.5,12,2.7,9
2016/9/20 3:06,1.5,11,1.6,11,2.7,8
2016/9/20 3:07,1.5,10,1.5,11,2.2,9
2016/9/20 3:08,1.4,10,1.5,11,1.4,11
2016/9/20 3:09,1.4,10,1.4,11,1.5,15
2016/9/20 3:10,1.4,10,1.4,11,1.9,15
2016/9/20 3:11,1.4,11,1.4,11,1.9,14
2016/9/20 3:12,1.3,11,1.4,11,2,12
2016/9/20 3:13,1.2,12,1.3,11,1.9,13
2016/9/20 3:14,1.2,12,1.2,11,2.1,10
2016/9/20 3:15,1.1,12,1.2,11,2,10
2016/9/20 3:16,1.1,12,1.1,11,1.4,12
2016/9/20 3:17,1.1,12,1.1,10,1.4,13
2016/9/20 3:18,1.1,13,1.1,10,1.3,13
2016/9/20 3:19,1.1,12,1.1,10,1.3,13
2016/9/20 3:20,1,12,1.1,10,1.1,9
2016/9/20 3:21,0.9,12,1,11,1.6,13
2016/9/20 3:22,0.9,12,0.9,11,2.5,11
2016/9/20 3:23,0.9,12,1,12,3.3,9
2016/9/20 3:24,1,12,1,12,2.5,10
2016/9/20 3:25,1.1,12,1.1,12,3.3,11
2016/9/20 3:26,1.3,12,1.3,12,2.5,12
2016/9/20 3:27,1.3,12,1.3,12,2.7,11
2016/9/20 3:28,1.4,12,1.4,12,2.4,12
2016/9/20 3:29,1.4,11,1.4,12,2.5,11
2016/9/20 3:30,1.6,11,1.6,11,3.3,10
2016/9/20 3:31,1.7,11,1.7,11,3,11
2016/9/20 3:32,1.8,11,1.8,11,3.3,10
2016/9/20 3:33,1.9,11,1.9,11,2.7,12
2016/9/20 3:34,1.9,12,1.9,11,3.1,16
2016/9/20 3:35,1.8,12,1.9,11,2,16
2016/9/20 3:36,1.8,12,1.8,11,2.9,12
2016/9/20 3:37,1.9,12,1.9,11,3.3,12
2016/9/20 3:38,2.1,12,2.1,12,3.6,11
2016/9/20 3:39,2.3,12,2.3,12,4.9,11
2016/9/20 3:40,2.3,12,2.4,12,4.1,11
2016/9/20 3:41,2.4,12,2.4,12,4.9,10
2016/9/20 3:42,2.2,12,2.3,12,3,9
2016/9/20 3:43,2.3,12,2.3,12,4.2,10
2016/9/20 3:44,2.4,11,2.4,12,5.5,9
2016/9/20 3:45,2.5,11,2.5,11,5.2,11
2016/9/20 3:46,2.5,11,2.5,11,2,3
2016/9/20 3:47,2.5,10,2.5,11,5.8,8
2016/9/20 3:48,2.4,10,2.5,11,4.2,8
2016/9/20 3:49,2.3,9,2.4,11,3.5,9
2016/9/20 3:50,2.3,9,2.3,11,6.9,9
2016/9/20 3:51,2.3,9,2.3,11,4.9,11
2016/9/20 3:52,2.2,10,2.3,11,1.8,13
2016/9/20 3:53,2.2,9,2.2,11,3.2,9
2016/9/20 3:54,2,9,2.1,11,2.5,16
2016/9/20 3:55,1.8,8,1.9,11,1.9,3
2016/9/20 3:56,1.8,8,1.8,10,2.1,3
2016/9/20 3:57,1.7,7,1.9,10,3.1,6
2016/9/20 3:58,1.9,7,1.9,10,5.6,8
2016/9/20 3:59,2,6,2,9,5.7,8
2016/9/20 4:00,1.9,6,2,9,4.2,8
2016/9/20 4:01,1.7,6,1.9,9,2.4,15
2016/9/20 4:02,1.9,6,1.9,9,3.9,8
2016/9/20 4:03,1.8,6,1.9,9,2.7,6
2016/9/20 4:04,1.7,6,1.8,7,1.1,14
2016/9/20 4:05,1.8,7,1.8,7,4.3,6
2016/9/20 4:06,2,7,2,7,5.2,6
2016/9/20 4:07,2.1,7,2.1,7,4.3,4
2016/9/20 4:08,2,6,2.1,7,5.8,3
2016/9/20 4:09,2,6,2,7,4.3,16
2016/9/20 4:10,1.9,5,2,7,3.8,5
2016/9/20 4:11,2.1,5,2.1,7,6.3,13
2016/9/20 4:12,2.2,4,2.2,5,5.6,16
2016/9/20 4:13,2.4,4,2.4,4,5.2,16
2016/9/20 4:14,2.6,3,2.6,3,4.4,1
2016/9/20 4:15,2.6,2,2.6,3,4.2,9
2016/9/20 4:16,2.4,1,2.5,3,5.4,10
2016/9/20 4:17,2.2,15,2.4,3,1.6,14
2016/9/20 4:18,2.1,13,2.2,3,3.3,9
2016/9/20 4:19,2,13,2,3,3.2,7
2016/9/20 4:20,1.9,12,2,3,3,8
2016/9/20 4:21,2,12,2.1,3,5.2,12
2016/9/20 4:22,2.2,11,2.2,3,7.4,9
2016/9/20 4:23,2.4,11,2.4,3,8.2,9
2016/9/20 4:24,2.5,10,2.5,3,6.2,8
2016/9/20 4:25,2.5,10,2.6,10,3.6,10
2016/9/20 4:26,2.5,11,2.5,10,3.8,13
2016/9/20 4:27,2.6,11,2.6,10,2.1,12
2016/9/20 4:28,2.5,11,2.6,10,2,12
2016/9/20 4:29,2.5,11,2.6,10,2,13
2016/9/20 4:30,2.5,12,2.5,10,3.9,8
2016/9/20 4:31,2.3,11,2.5,10,2.6,4
2016/9/20 4:32,2,12,2.3,10,4.4,9
2016/9/20 4:33,1.8,12,2,10,5.2,9
2016/9/20 4:34,1.7,12,1.8,10,6.7,14
2016/9/20 4:35,1.8,12,1.8,11,5,14
2016/9/20 4:36,1.8,12,1.8,11,4.3,11
2016/9/20 4:37,2,13,2,11,6.1,14
2016/9/20 4:38,2.2,13,2.2,11,5.5,14
2016/9/20 4:39,2.6,13,2.6,13,8.5,5
2016/9/20 4:40,2.6,13,2.6,13,3.7,11
2016/9/20 4:41,2.6,13,2.6,13,2.9,12
2016/9/20 4:42,2.7,13,2.7,13,5.7,15
2016/9/20 4:43,2.7,14,2.7,13,3.7,3
2016/9/20 4:44,2.8,15,2.8,14,5.4,3
2016/9/20 4:45,2.8,16,2.9,15,8.1,2
2016/9/20 4:46,3.2,16,3.2,16,11.4,16
2016/9/20 4:47,3.7,1,3.7,1,15.9,1
2016/9/20 4:48,3.9,1,3.9,1,14.9,1
2016/9/20 4:49,4,1,4,1,11.5,2
2016/9/20 4:50,4.1,2,4.1,1,7.7,1
2016/9/20 4:51,4.3,2,4.3,2,9.5,1
2016/9/20 4:52,4.4,2,4.4,2,7.2,1
2016/9/20 4:53,4.6,2,4.6,2,13.2,1
2016/9/20 4:54,4.7,2,4.7,2,7.7,2
2016/9/20 4:55,4.8,2,4.8,2,9,2
2016/9/20 4:56,4.8,2,4.9,2,7.8,3
2016/9/20 4:57,4.5,3,4.9,2,9.1,5
2016/9/20 4:58,4.2,3,4.5,2,3.2,4
2016/9/20 4:59,3.9,3,4.2,2,6,7
2016/9/20 5:00,3.7,3,3.9,2,3.5,15
2016/9/20 5:01,3.8,3,3.8,2,7.2,2
2016/9/20 5:02,3.7,3,3.8,2,8.4,16
2016/9/20 5:03,3.6,2,3.8,2,9.1,13
2016/9/20 5:04,4,2,4,2,13.6,1
2016/9/20 5:05,4.2,2,4.2,2,14.4,1
2016/9/20 5:06,4,2,4.2,3,8.7,3
2016/9/20 5:07,3.9,2,3.9,3,7,6
2016/9/20 5:08,4.1,3,4.1,3,5.7,6
2016/9/20 5:09,4.1,3,4.2,2,4.5,7
2016/9/20 5:10,4,4,4.1,2,1.9,8
2016/9/20 5:11,3.9,5,4,2,4.9,10
2016/9/20 5:12,3.8,6,3.9,2,6,5
2016/9/20 5:13,3.6,5,3.8,2,3.9,2
2016/9/20 5:14,3.1,5,3.6,2,3.7,3
2016/9/20 5:15,2.7,6,3,2,5.2,3
2016/9/20 5:16,2.6,5,2.7,3,7,3
2016/9/20 5:17,2.2,6,2.5,3,2.6,9
2016/9/20 5:18,2.1,7,2.2,3,4.7,10
2016/9/20 5:19,2,7,2.1,3,3.1,9
2016/9/20 5:20,2,7,2,4,2.4,8
2016/9/20 5:21,1.9,6,2,5,2,10
2016/9/20 5:22,2,6,2,5,5.4,8
2016/9/20 5:23,1.9,8,1.9,5,3.1,12
2016/9/20 5:24,2.2,9,2.2,5,5.5,15
2016/9/20 5:25,2.1,9,2.2,6,8.4,3
2016/9/20 5:26,2.2,9,2.2,5,6.3,14
2016/9/20 5:27,2.3,8,2.3,9,5.1,5
2016/9/20 5:28,2.3,6,2.4,7,4.3,6
2016/9/20 5:29,2.5,5,2.5,5,6.1,4
2016/9/20 5:30,2.7,4,2.7,4,5.7,2
2016/9/20 5:31,2.8,2,2.8,2,4.7,2
2016/9/20 5:32,2.9,2,2.9,2,7.1,1
2016/9/20 5:33,3,2,3.1,2,7,4
2016/9/20 5:34,2.9,3,3,2,8.1,1
2016/9/20 5:35,2.9,2,3,2,6.5,16
2016/9/20 5:36,2.9,3,3,2,8.1,4
2016/9/20 5:37,2.9,3,2.9,2,5.8,3
2016/9/20 5:38,3.1,3,3.1,2,6.4,2
2016/9/20 5:39,2.9,3,3.1,2,2,2
2016/9/20 5:40,2.8,3,2.9,2,4.2,7
2016/9/20 5:41,2.7,3,2.9,2,5.7,8
2016/9/20 5:42,2.5,4,2.7,2,4.1,9
2016/9/20 5:43,2.3,4,2.5,3,3.6,7
2016/9/20 5:44,2.5,5,2.5,3,6.1,9
2016/9/20 5:45,2.3,5,2.5,3,5,8
2016/9/20 5:46,2.1,6,2.3,3,3,8
2016/9/20 5:47,2.1,6,2.1,3,4.5,3
2016/9/20 5:48,1.8,7,2,3,4.2,4
2016/9/20 5:49,1.8,8,1.8,3,5.7,5
2016/9/20 5:50,1.7,12,1.8,3,1.5,1
2016/9/20 5:51,1.6,9,1.6,3,1.5,15
2016/9/20 5:52,1.5,1,1.6,4,1.6,3
2016/9/20 5:53,1.5,15,1.5,5,3.3,10
2016/9/20 5:54,1.3,15,1.5,5,3.5,10
2016/9/20 5:55,1.4,12,1.4,5,4.4,10
2016/9/20 5:56,1.4,11,1.4,6,2.2,9
2016/9/20 5:57,1.3,9,1.4,6,3.1,8
2016/9/20 5:58,1.4,9,1.4,7,4.2,9
2016/9/20 5:59,1.7,9,1.7,8,4.7,9
2016/9/20 6:00,2,9,2,9,5.6,10
2016/9/20 6:01,2.2,10,2.2,10,5.5,9
2016/9/20 6:02,2.5,10,2.5,10,6.4,10
2016/9/20 6:03,2.8,10,2.8,10,5.6,11
2016/9/20 6:04,3.1,10,3.1,10,9.3,14
2016/9/20 6:05,3.1,10,3.1,10,6.4,15
2016/9/20 6:06,3.2,11,3.2,11,3.7,10
2016/9/20 6:07,3.3,11,3.3,11,3.8,10
2016/9/20 6:08,3.4,11,3.4,11,3.7,10
2016/9/20 6:09,3.3,11,3.4,11,5.1,10
2016/9/20 6:10,3.4,11,3.4,11,6.3,10
2016/9/20 6:11,3.4,11,3.4,11,6.5,10
2016/9/20 6:12,3.6,11,3.6,11,7.7,10
2016/9/20 6:13,3.6,11,3.7,11,6.3,11
2016/9/20 6:14,3.4,11,3.5,11,4.9,10
2016/9/20 6:15,3.5,11,3.5,11,5.7,12
2016/9/20 6:16,3.7,11,3.7,11,6,12
2016/9/20 6:17,3.9,11,3.9,11,6.3,10
2016/9/20 6:18,4,11,4,11,5.6,10
2016/9/20 6:19,3.9,11,4,11,4.8,9
2016/9/20 6:20,3.6,11,3.9,11,2,12
2016/9/20 6:21,3.3,11,3.6,11,1.5,11
2016/9/20 6:22,2.8,11,3.3,11,2.2,8
2016/9/20 6:23,2.7,11,2.8,11,5,9
2016/9/20 6:24,2.9,11,2.9,11,7.1,10
2016/9/20 6:25,2.8,11,2.9,11,8.3,9
2016/9/20 6:26,2.9,10,2.9,11,7.9,9
2016/9/20 6:27,2.9,10,2.9,11,7,10
2016/9/20 6:28,2.8,10,2.9,11,5.4,9
2016/9/20 6:29,2.8,10,2.8,11,3.2,10
2016/9/20 6:30,2.7,10,2.8,11,3.2,9
2016/9/20 6:31,2.8,10,2.8,11,1.6,12
2016/9/20 6:32,2.8,10,2.8,11,2.5,13
2016/9/20 6:33,2.7,10,2.9,11,2.6,14
2016/9/20 6:34,2.5,10,2.7,11,3.5,12
2016/9/20 6:35,2.4,11,2.5,10,3.1,12
2016/9/20 6:36,2.2,11,2.4,10,4.8,14
2016/9/20 6:37,2,12,2.2,10,3.9,12
2016/9/20 6:38,2,12,2,10,4.3,12
2016/9/20 6:39,2.1,12,2.1,10,4.2,11
2016/9/20 6:40,2.5,12,2.5,10,8.4,11
2016/9/20 6:41,2.8,12,2.8,10,6,9
2016/9/20 6:42,3,12,3,12,7.2,11
2016/9/20 6:43,3.3,12,3.3,12,7.6,10
2016/9/20 6:44,3.5,12,3.5,12,5.1,9
2016/9/20 6:45,3.6,11,3.6,11,6.8,10
2016/9/20 6:46,3.6,11,3.7,11,5.5,10
2016/9/20 6:47,3.5,10,3.6,11,5.6,9
2016/9/20 6:48,3.5,10,3.5,11,3.6,9
2016/9/20 6:49,3.4,10,3.5,11,4.5,8
2016/9/20 6:50,3.2,9,3.4,11,5,9
2016/9/20 6:51,3,9,3.2,11,4.9,8
2016/9/20 6:52,2.8,9,3,11,3.2,4
2016/9/20 6:53,2.5,8,2.8,11,2.7,3
2016/9/20 6:54,2.3,8,2.5,11,3.1,8
2016/9/20 6:55,2.3,8,2.3,11,5,8
2016/9/20 6:56,2.1,7,2.3,11,2.7,8
2016/9/20 6:57,2.2,8,2.2,10,3.9,8
2016/9/20 6:58,2.2,8,2.2,10,3.5,9
2016/9/20 6:59,1.9,8,2.1,10,1.6,9
2016/9/20 7:00,1.8,8,1.9,9,2.1,9
2016/9/20 7:01,1.7,8,1.8,9,2.7,9
2016/9/20 7:02,1.6,8,1.7,9,1.6,13
2016/9/20 7:03,1.6,9,1.6,8,1.6,14
2016/9/20 7:04,1.5,10,1.6,8,2.7,16
2016/9/20 7:05,1.3,11,1.5,8,2,15
2016/9/20 7:06,1.3,12,1.3,8,3,15
2016/9/20 7:07,1.2,13,1.3,8,2.4,13
2016/9/20 7:08,1.1,13,1.2,8,2.9,8
2016/9/20 7:09,1.3,13,1.3,8,2.2,3
2016/9/20 7:10,1.4,13,1.4,8,2.9,12
2016/9/20 7:11,1.3,14,1.4,8,4.4,4
2016/9/20 7:12,1.5,14,1.5,9,3.8,4
2016/9/20 7:13,1.6,13,1.6,9,3.3,8
2016/9/20 7:14,1.6,10,1.6,13,2.4,11
2016/9/20 7:15,1.6,9,1.6,13,3.2,9
2016/9/20 7:16,1.6,8,1.7,8,2.1,7
2016/9/20 7:17,1.6,8,1.6,8,2.1,9
2016/9/20 7:18,1.6,8,1.6,8,3.2,7
2016/9/20 7:19,1.7,8,1.7,8,4.1,9
2016/9/20 7:20,1.7,8,1.7,8,4.1,9
2016/9/20 7:21,1.7,8,1.7,8,5,10
2016/9/20 7:22,1.8,8,1.8,8,4.8,9
2016/9/20 7:23,1.6,9,1.7,8,2.4,8
2016/9/20 7:24,1.7,8,1.7,8,4.2,7
2016/9/20 7:25,1.8,8,1.8,8,6.2,8
2016/9/20 7:26,1.8,8,1.8,8,4.8,9
2016/9/20 7:27,1.7,8,1.8,8,1.3,16
2016/9/20 7:28,1.6,9,1.7,8,0.9,13
2016/9/20 7:29,1.5,10,1.6,8,2.1,13
2016/9/20 7:30,1.4,10,1.5,8,2.2,13
2016/9/20 7:31,1.3,11,1.4,8,3,12
2016/9/20 7:32,1.4,11,1.4,8,4.2,12
2016/9/20 7:33,1.7,11,1.7,8,4.2,11
2016/9/20 7:34,1.8,11,1.9,11,3.5,12
2016/9/20 7:35,1.9,12,1.9,11,3.5,11
2016/9/20 7:36,2,12,2,12,3.7,11
2016/9/20 7:37,2.3,12,2.3,12,4.3,12
2016/9/20 7:38,2.4,11,2.4,12,4.4,12
2016/9/20 7:39,2.5,11,2.5,11,3.9,9
2016/9/20 7:40,2.6,11,2.6,11,4.2,8
2016/9/20 7:41,2.6,11,2.6,11,3.8,8
2016/9/20 7:42,2.5,11,2.6,11,6,9
2016/9/20 7:43,2.5,11,2.5,11,6.1,10
2016/9/20 7:44,2.6,11,2.6,11,4.5,11
2016/9/20 7:45,2.5,11,2.6,11,4.7,10
2016/9/20 7:46,2.6,11,2.6,11,5.4,10
2016/9/20 7:47,2.7,11,2.7,11,5.2,10
2016/9/20 7:48,2.8,11,2.8,11,4.5,10
2016/9/20 7:49,2.9,11,2.9,11,4.4,11
2016/9/20 7:50,3.2,11,3.2,11,6.1,10
2016/9/20 7:51,3.3,11,3.3,11,4.4,10
2016/9/20 7:52,3.2,11,3.3,11,3.9,10
2016/9/20 7:53,3,11,3.2,11,3.2,11
2016/9/20 7:54,2.8,11,3,11,2.2,12
2016/9/20 7:55,2.7,11,2.8,11,4.1,10
2016/9/20 7:56,2.5,11,2.8,11,4.4,9
2016/9/20 7:57,2.3,11,2.5,11,3.9,11
2016/9/20 7:58,2.2,11,2.3,11,2.2,10
2016/9/20 7:59,2,10,2.1,11,2.9,8
2016/9/20 8:00,1.7,11,2,11,2,10
2016/9/20 8:01,1.5,11,1.7,11,1.6,9
2016/9/20 8:02,1.5,10,1.5,11,2.9,9
2016/9/20 8:03,1.4,10,1.5,11,3.3,8
2016/9/20 8:04,1.5,10,1.5,11,5.1,9
2016/9/20 8:05,1.5,10,1.6,11,4.5,8
2016/9/20 8:06,1.4,10,1.5,11,1.3,9
2016/9/20 8:07,1.4,10,1.4,11,3,14
2016/9/20 8:08,1.5,10,1.5,11,4.2,15
2016/9/20 8:09,1.6,11,1.6,10,4.7,14
2016/9/20 8:10,1.8,11,1.8,11,5.4,10
2016/9/20 8:11,2,11,2,11,5.2,11
2016/9/20 8:12,2.1,11,2.1,11,3.5,11
2016/9/20 8:13,2.2,11,2.2,11,3.9,11
2016/9/20 8:14,2.2,12,2.3,12,3.2,12
2016/9/20 8:15,2.2,12,2.2,12,3,15
2016/9/20 8:16,2.4,12,2.4,12,3.9,15
2016/9/20 8:17,2.5,13,2.5,13,5,14
2016/9/20 8:18,2.5,12,2.6,13,4.8,14
2016/9/20 8:19,2.5,12,2.5,13,3.3,8
2016/9/20 8:20,2.5,12,2.6,13,6.2,9
2016/9/20 8:21,2.3,12,2.5,13,2.4,6
2016/9/20 8:22,2.3,13,2.3,13,4.2,1
2016/9/20 8:23,2.3,13,2.3,13,3.8,15
2016/9/20 8:24,2.4,13,2.4,13,4.5,12
2016/9/20 8:25,2.4,13,2.4,13,3.1,10
2016/9/20 8:26,2.3,12,2.3,13,2.9,6
2016/9/20 8:27,2.2,12,2.3,13,6,11
2016/9/20 8:28,2.2,11,2.2,12,5.5,12
2016/9/20 8:29,2.3,12,2.3,12,8.1,10
2016/9/20 8:30,2.4,12,2.4,12,7,9
2016/9/20 8:31,2.7,12,2.7,12,9.9,9
2016/9/20 8:32,2.9,11,2.9,11,6.9,9
2016/9/20 8:33,3,11,3,11,8.1,9
2016/9/20 8:34,3,10,3,11,6.7,10
2016/9/20 8:35,3.2,10,3.2,10,6.8,9
2016/9/20 8:36,3.6,10,3.6,10,6.4,10
2016/9/20 8:37,3.7,10,3.7,10,6.2,10
2016/9/20 8:38,3.8,10,3.8,10,5.5,9
2016/9/20 8:39,3.7,10,3.8,10,5.1,12
2016/9/20 8:40,3.5,10,3.7,10,3.9,16
2016/9/20 8:41,3.2,10,3.5,10,4.7,16
2016/9/20 8:42,3.2,11,3.3,10,5,10
2016/9/20 8:43,3.3,11,3.3,10,5.8,10
2016/9/20 8:44,3.4,11,3.4,10,6.5,9
2016/9/20 8:45,3.4,11,3.5,10,6.2,10
2016/9/20 8:46,3.4,11,3.5,10,6.4,9
2016/9/20 8:47,3.3,11,3.3,10,4.7,10
2016/9/20 8:48,3.2,11,3.3,10,5.2,9
2016/9/20 8:49,3.1,11,3.2,10,2.7,15
2016/9/20 8:50,3.1,11,3.1,10,3.7,11
2016/9/20 8:51,3.4,11,3.4,11,6,12
2016/9/20 8:52,3.5,11,3.5,11,5,13
2016/9/20 8:53,3.4,11,3.4,11,5,11
2016/9/20 8:54,3.2,11,3.4,11,5.5,10
2016/9/20 8:55,3,11,3.2,11,4.5,11
2016/9/20 8:56,2.9,11,3,11,5.4,10
2016/9/20 8:57,3,11,3,11,5.4,11
2016/9/20 8:58,3.3,11,3.3,11,7.6,11
2016/9/20 8:59,3.5,11,3.5,11,6.9,10
2016/9/20 9:00,3.7,11,3.7,11,7,11
2016/9/20 9:01,3.7,11,3.7,11,8.5,9
2016/9/20 9:02,3.6,11,3.7,11,6.4,9
2016/9/20 9:03,3.6,10,3.7,11,6.3,9
2016/9/20 9:04,3.8,10,3.8,10,7.7,9
2016/9/20 9:05,4,10,4,10,8.5,10
2016/9/20 9:06,4.2,10,4.2,10,7.8,9
2016/9/20 9:07,4.3,10,4.3,10,7.6,10
2016/9/20 9:08,4.1,10,4.2,10,6.8,9
2016/9/20 9:09,3.9,10,4.1,10,5.8,9
2016/9/20 9:10,3.7,10,3.9,10,7.4,10
2016/9/20 9:11,3.9,10,3.9,10,7.8,9
2016/9/20 9:12,4.1,10,4.1,10,8.2,11
2016/9/20 9:13,4.3,10,4.3,10,8.1,10
2016/9/20 9:14,4.1,10,4.3,10,6.2,8
2016/9/20 9:15,3.9,10,4.1,10,5.7,9
2016/9/20 9:16,3.6,10,3.9,10,4.4,9
2016/9/20 9:17,3.5,10,3.5,10,6.3,9
2016/9/20 9:18,3.6,10,3.6,10,9,9
2016/9/20 9:19,3.5,10,3.6,10,4.1,9
2016/9/20 9:20,3.4,10,3.5,10,3.2,10
2016/9/20 9:21,3,10,3.3,10,3.5,13
2016/9/20 9:22,2.8,10,3,10,5.5,9
2016/9/20 9:23,2.6,10,2.8,10,5.1,11
2016/9/20 9:24,2.8,10,2.8,10,7.7,10
2016/9/20 9:25,2.8,10,2.8,10,4.9,8
2016/9/20 9:26,2.8,10,2.8,10,3.2,10
2016/9/20 9:27,2.7,11,2.8,10,5.4,11
2016/9/20 9:28,2.8,11,2.8,10,6,10
2016/9/20 9:29,3,11,3,10,6.1,10
2016/9/20 9:30,3,10,3,10,3.3,9
2016/9/20 9:31,2.9,10,3,10,2.2,13
2016/9/20 9:32,2.7,10,2.9,11,2.2,12
2016/9/20 9:33,2.5,11,2.7,11,1.5,12
2016/9/20 9:34,2.1,11,2.4,11,1.6,11
2016/9/20 9:35,2,11,2.1,11,1.5,15
2016/9/20 9:36,2.1,10,2.1,11,4.4,8
2016/9/20 9:37,1.8,10,2,11,3.7,7
2016/9/20 9:38,1.6,10,1.8,11,5.2,8
2016/9/20 9:39,1.5,10,1.6,11,3.7,10
2016/9/20 9:40,1.7,10,1.7,10,7.5,8
2016/9/20 9:41,1.9,9,1.9,10,6.7,1
2016/9/20 9:42,2.1,8,2.1,10,10.5,1
2016/9/20 9:43,2.5,7,2.5,7,9.8,1
2016/9/20 9:44,2.8,6,2.8,6,10,3
2016/9/20 9:45,3.1,6,3.1,6,11.4,1
2016/9/20 9:46,3.3,5,3.3,5,9.5,2
2016/9/20 9:47,3.7,4,3.7,4,11,15
2016/9/20 9:48,4,3,4,3,13.3,2
2016/9/20 9:49,4.4,2,4.4,2,14,2
2016/9/20 9:50,4.4,2,4.4,2,11.8,2
2016/9/20 9:51,4.9,1,4.9,1,13.1,16
2016/9/20 9:52,4.9,1,5,1,9.2,15
2016/9/20 9:53,5,1,5,1,12.5,1
2016/9/20 9:54,5.2,1,5.3,1,10.7,15
2016/9/20 9:55,5.3,1,5.3,1,10.1,16
2016/9/20 9:56,5.5,1,5.5,1,14.8,1
2016/9/20 9:57,5.5,1,5.6,1,9.1,2
2016/9/20 9:58,5.3,16,5.5,1,12.5,1
2016/9/20 9:59,5.4,16,5.4,1,14.1,16
2016/9/20 10:00,5.7,16,5.7,16,11.3,1
2016/9/20 10:01,5.7,16,5.7,16,12.6,15
2016/9/20 10:02,5.8,16,5.8,16,9.8,1
2016/9/20 10:03,5.9,16,5.9,16,12.2,16
2016/9/20 10:04,6,16,6.1,16,14.5,16
2016/9/20 10:05,6.3,16,6.3,16,11.6,16
2016/9/20 10:06,6.5,16,6.5,16,14.3,16
2016/9/20 10:07,6.8,16,6.8,16,14.5,15
2016/9/20 10:08,7.1,16,7.1,16,15.7,2
2016/9/20 10:09,7.5,16,7.5,16,17.1,16
2016/9/20 10:10,7.7,16,7.7,16,14,2
2016/9/20 10:11,8,16,8,16,14.7,1
2016/9/20 10:12,8.6,16,8.6,16,19.2,1
2016/9/20 10:13,9.4,16,9.4,16,19,16
2016/9/20 10:14,9.9,16,9.9,16,21.8,16
2016/9/20 10:15,10.3,16,10.3,16,20.1,16
2016/9/20 10:16,10.4,16,10.4,16,16.9,15
2016/9/20 10:17,10.9,16,11,16,21.4,15
2016/9/20 10:18,11.2,16,11.2,16,17.9,14
2016/9/20 10:19,11.3,16,11.4,16,20.5,16
2016/9/20 10:20,11.8,16,11.8,16,21.8,16
2016/9/20 10:21,11.9,16,12.1,16,18.1,16
2016/9/20 10:22,11.5,16,11.9,16,16.7,16
2016/9/20 10:23,11.6,16,11.6,16,20.5,1
2016/9/20 10:24,11.5,16,11.6,16,18.3,16
2016/9/20 10:25,11.7,16,11.7,16,21.4,1
2016/9/20 10:26,11.9,16,11.9,16,21.4,16
2016/9/20 10:27,11.9,16,11.9,16,17.9,15
2016/9/20 10:28,12,16,12.1,16,22,16
2016/9/20 10:29,11.7,16,12,16,15.6,1
2016/9/20 10:30,11.6,16,11.8,16,21.3,14
2016/9/20 10:31,11.7,16,11.7,16,20.7,15
2016/9/20 10:32,12.2,16,12.3,16,18.8,16
2016/9/20 10:33,12.2,16,12.3,16,23.1,16
2016/9/20 10:34,12.1,16,12.2,16,18.5,15
2016/9/20 10:35,12.1,16,12.2,16,22.3,16
2016/9/20 10:36,11.8,16,12.1,16,14,16
2016/9/20 10:37,11.6,16,11.9,16,20.2,15
2016/9/20 10:38,11.5,16,11.7,16,19.3,16
2016/9/20 10:39,11.6,16,11.6,16,15.8,16
2016/9/20 10:40,11.7,16,11.7,16,19.4,16
2016/9/20 10:41,11.4,16,11.6,16,18.3,15
2016/9/20 10:42,11.3,16,11.3,16,21.5,16
2016/9/20 10:43,11.2,16,11.3,16,18.7,16
2016/9/20 10:44,11.3,16,11.4,16,19.4,16
2016/9/20 10:45,11.1,16,11.3,16,18.9,16
2016/9/20 10:46,11.8,16,11.8,16,26.1,16
2016/9/20 10:47,12.2,16,12.2,16,21.5,16
2016/9/20 10:48,12.2,16,12.3,16,19.3,1
2016/9/20 10:49,12.4,16,12.5,16,19.8,1
2016/9/20 10:50,12.5,16,12.7,16,22.4,16
2016/9/20 10:51,12.6,16,12.6,16,21,1
2016/9/20 10:52,12.7,16,12.7,16,19.2,1
2016/9/20 10:53,12.2,16,12.6,16,14.8,2
2016/9/20 10:54,11.9,16,12.1,16,15.2,15
2016/9/20 10:55,11.7,16,12,16,18.5,15
2016/9/20 10:56,11.3,16,11.6,16,19.4,16
2016/9/20 10:57,10.9,16,11.2,16,17.7,15
2016/9/20 10:58,10.8,16,10.9,16,17.4,1
2016/9/20 10:59,10.8,16,10.8,16,23.2,16
2016/9/20 11:00,10.4,16,10.8,16,18.6,14
2016/9/20 11:01,10.4,16,10.5,16,16.6,1
2016/9/20 11:02,10.2,16,10.5,16,18.9,14
2016/9/20 11:03,10.8,16,10.8,16,22.4,16
2016/9/20 11:04,10.9,16,10.9,16,21.1,1
2016/9/20 11:05,11.3,16,11.3,16,22.2,16
2016/9/20 11:06,11.2,16,11.3,16,21.3,15